| time (UTC) | temp C | wind direction | speed KPH | gust KPH | rain 1hr cm | rain 24hr cm | rain mn cm | humidity % | barometer mb |
| 20260504150843 | 17 | 25 | 6.4 | 17.7 | 0.00 | 0.00 | 0.00 | 35 | 1006.2 |
| 20260504150339 | 17 | 254 | 8.0 | 22.5 | 0.00 | 0.00 | 0.00 | 37 | 1006.2 |
| 20260504141310 | 17 | 231 | 3.2 | 12.9 | 0.00 | 0.00 | 0.00 | 37 | 1006.2 |
| 20260504140806 | 17 | 281 | 6.4 | 16.1 | 0.00 | 0.00 | 0.00 | 35 | 1006.2 |
| 20260504140302 | 17 | 230 | 3.2 | 11.3 | 0.00 | 0.00 | 0.00 | 36 | 1006.2 |
| 20260504130731 | 15 | 9 | 4.8 | 4.8 | 0.00 | 0.00 | 0.00 | 45 | 1006.9 |
| 20260504130226 | 15 | 161 | 1.6 | 4.8 | 0.00 | 0.00 | 0.00 | 42 | 1007.3 |
| 20260504120150 | 11 | 150 | 0.0 | 1.6 | 0.00 | 0.00 | 0.00 | 56 | 1007.3 |
| 20260504110618 | 8 | 175 | 0.0 | 3.2 | 0.00 | 0.00 | 0.00 | 59 | 1006.9 |
| 20260504110114 | 8 | 187 | 0.0 | 1.6 | 0.00 | 0.00 | 0.00 | 59 | 1007.3 |
| 20260504100539 | 7 | 243 | 3.2 | 4.8 | 0.00 | 0.00 | 0.00 | 62 | 1006.6 |
| 20260504081933 | 7 | 183 | 0.0 | 1.6 | 0.00 | 0.00 | 0.00 | 63 | 1006.2 |
| 20260504081430 | 7 | 197 | 0.0 | 3.2 | 0.00 | 0.00 | 0.00 | 63 | 1006.2 |
| 20260504080926 | 7 | 167 | 0.0 | 1.6 | 0.00 | 0.00 | 0.00 | 64 | 1006.2 |
| 20260504080423 | 7 | 168 | 1.6 | 3.2 | 0.00 | 0.00 | 0.00 | 64 | 1006.2 |
| 20260504070350 | 7 | 189 | 0.0 | 1.6 | 0.00 | 0.00 | 0.00 | 62 | 1006.2 |
| 20260504050738 | 3 | 186 | 0.0 | 0.0 | 0.00 | 0.00 | 0.00 | 79 | 1005.9 |
| 20260504050235 | 2 | 186 | 0.0 | 0.0 | 0.00 | 0.00 | 0.00 | 78 | 1005.9 |
| 20260504045732 | 2 | 186 | 0.0 | 0.0 | 0.00 | 0.00 | 0.00 | 78 | 1005.9 |
| 20260504045227 | 2 | 186 | 0.0 | 0.0 | 0.00 | 0.00 | 0.00 | 80 | 1005.9 |
| 20260504044725 | 2 | 186 | 0.0 | 0.0 | 0.00 | 0.00 | 0.00 | 82 | 1005.9 |
| 20260504044222 | 3 | 186 | 0.0 | 0.0 | 0.00 | 0.00 | 0.00 | 82 | 1005.9 |
| 20260504043720 | 3 | 186 | 0.0 | 0.0 | 0.00 | 0.00 | 0.00 | 81 | 1006.2 |
| 20260504043216 | 3 | 186 | 0.0 | 0.0 | 0.00 | 0.00 | 0.00 | 78 | 1005.9 |
| 20260504042714 | 3 | 186 | 0.0 | 0.0 | 0.00 | 0.00 | 0.00 | 79 | 1005.9 |
| 20260504042210 | 3 | 186 | 0.0 | 0.0 | 0.00 | 0.00 | 0.00 | 77 | 1005.9 |
| 20260504041706 | 3 | 186 | 0.0 | 0.0 | 0.00 | 0.00 | 0.00 | 76 | 1005.9 |
| 20260504041202 | 3 | 186 | 0.0 | 0.0 | 0.00 | 0.00 | 0.00 | 76 | 1005.9 |
| 20260504040659 | 3 | 186 | 0.0 | 0.0 | 0.00 | 0.00 | 0.00 | 73 | 1006.2 |
| 20260504040156 | 3 | 186 | 0.0 | 0.0 | 0.00 | 0.00 | 0.00 | 71 | 1005.9 |
| 20260504035652 | 3 | 186 | 0.0 | 0.0 | 0.00 | 0.00 | 0.00 | 71 | 1005.9 |
| 20260504035150 | 4 | 186 | 0.0 | 0.0 | 0.00 | 0.00 | 0.00 | 68 | 1005.9 |
| 20260504034647 | 4 | 186 | 0.0 | 0.0 | 0.00 | 0.00 | 0.00 | 68 | 1006.2 |
| 20260504034144 | 4 | 186 | 0.0 | 0.0 | 0.00 | 0.00 | 0.00 | 65 | 1005.9 |
| 20260504033642 | 5 | 186 | 0.0 | 0.0 | 0.00 | 0.00 | 0.00 | 68 | 1005.6 |
| 20260504033139 | 5 | 186 | 0.0 | 0.0 | 0.00 | 0.00 | 0.00 | 65 | 1005.9 |
| 20260504032635 | 5 | 186 | 0.0 | 0.0 | 0.00 | 0.00 | 0.00 | 66 | 1005.9 |
| 20260504032132 | 5 | 186 | 0.0 | 0.0 | 0.00 | 0.00 | 0.00 | 65 | 1005.9 |
| 20260504031630 | 5 | 186 | 0.0 | 0.0 | 0.00 | 0.00 | 0.00 | 64 | 1005.6 |
| 20260504031126 | 5 | 186 | 0.0 | 0.0 | 0.00 | 0.00 | 0.00 | 66 | 1005.6 |
| 20260504030623 | 5 | 186 | 0.0 | 0.0 | 0.00 | 0.00 | 0.00 | 65 | 1005.9 |
| 20260504030120 | 5 | 186 | 0.0 | 0.0 | 0.00 | 0.00 | 0.00 | 62 | 1005.6 |
| 20260504025616 | 5 | 186 | 0.0 | 0.0 | 0.00 | 0.00 | 0.00 | 62 | 1005.6 |
| 20260504025113 | 5 | 186 | 0.0 | 0.0 | 0.00 | 0.00 | 0.00 | 60 | 1005.9 |
| 20260504024611 | 5 | 186 | 0.0 | 0.0 | 0.00 | 0.00 | 0.00 | 61 | 1005.6 |
| 20260504024107 | 5 | 186 | 0.0 | 0.0 | 0.00 | 0.00 | 0.00 | 61 | 1005.9 |
| 20260504023603 | 6 | 186 | 0.0 | 0.0 | 0.00 | 0.00 | 0.00 | 63 | 1005.6 |
| 20260504023059 | 6 | 186 | 0.0 | 0.0 | 0.00 | 0.00 | 0.00 | 59 | 1005.9 |
| 20260504022556 | 6 | 186 | 0.0 | 0.0 | 0.00 | 0.00 | 0.00 | 59 | 1005.9 |
| 20260504022052 | 6 | 186 | 0.0 | 0.0 | 0.00 | 0.00 | 0.00 | 58 | 1005.9 |
| 20260504021550 | 6 | 186 | 0.0 | 0.0 | 0.00 | 0.00 | 0.00 | 58 | 1005.9 |
| 20260504021046 | 6 | 186 | 0.0 | 0.0 | 0.00 | 0.00 | 0.00 | 56 | 1005.9 |
| 20260504020543 | 6 | 186 | 0.0 | 0.0 | 0.00 | 0.00 | 0.00 | 59 | 1005.6 |
| 20260504020040 | 6 | 186 | 0.0 | 0.0 | 0.00 | 0.00 | 0.00 | 58 | 1005.9 |
| 20260504015537 | 6 | 186 | 0.0 | 0.0 | 0.00 | 0.00 | 0.00 | 60 | 1005.6 |
| 20260504015032 | 6 | 186 | 0.0 | 0.0 | 0.00 | 0.00 | 0.00 | 56 | 1005.9 |
| 20260504014529 | 6 | 186 | 0.0 | 0.0 | 0.00 | 0.00 | 0.00 | 55 | 1005.9 |
| 20260504014026 | 7 | 186 | 0.0 | 0.0 | 0.00 | 0.00 | 0.00 | 56 | 1005.6 |
| 20260504013524 | 7 | 186 | 0.0 | 0.0 | 0.00 | 0.00 | 0.00 | 56 | 1005.6 |
| 20260504013020 | 7 | 186 | 0.0 | 0.0 | 0.00 | 0.00 | 0.00 | 51 | 1005.6 |
| 20260504012518 | 7 | 186 | 0.0 | 0.0 | 0.00 | 0.00 | 0.00 | 51 | 1005.6 |
| 20260504012016 | 7 | 186 | 0.0 | 0.0 | 0.00 | 0.00 | 0.00 | 50 | 1005.6 |
| 20260504011512 | 7 | 186 | 0.0 | 0.0 | 0.00 | 0.00 | 0.00 | 51 | 1005.6 |
| 20260504011008 | 7 | 186 | 0.0 | 0.0 | 0.00 | 0.00 | 0.00 | 48 | 1005.6 |
| 20260504010504 | 8 | 186 | 0.0 | 0.0 | 0.00 | 0.00 | 0.00 | 49 | 1005.2 |
| 20260504010000 | 8 | 186 | 0.0 | 0.0 | 0.00 | 0.00 | 0.00 | 47 | 1005.2 |
| 20260504005457 | 8 | 186 | 0.0 | 0.0 | 0.00 | 0.00 | 0.00 | 46 | 1004.9 |
| 20260504004954 | 8 | 186 | 0.0 | 0.0 | 0.00 | 0.00 | 0.00 | 47 | 1004.9 |
| 20260504004452 | 8 | 186 | 0.0 | 0.0 | 0.00 | 0.00 | 0.00 | 45 | 1005.2 |
| 20260504003949 | 9 | 186 | 0.0 | 0.0 | 0.00 | 0.00 | 0.00 | 45 | 1004.9 |
| 20260504003445 | 9 | 186 | 0.0 | 0.0 | 0.00 | 0.00 | 0.00 | 44 | 1004.9 |
| 20260504002942 | 10 | 186 | 0.0 | 0.0 | 0.00 | 0.00 | 0.00 | 43 | 1004.5 |
| 20260504002439 | 10 | 186 | 0.0 | 0.0 | 0.00 | 0.00 | 0.00 | 43 | 1004.9 |
| 20260504001936 | 10 | 186 | 0.0 | 0.0 | 0.00 | 0.00 | 0.00 | 44 | 1004.5 |
| 20260504001433 | 10 | 186 | 0.0 | 0.0 | 0.00 | 0.00 | 0.00 | 42 | 1004.5 |
| 20260504000930 | 10 | 186 | 0.0 | 0.0 | 0.00 | 0.00 | 0.00 | 43 | 1004.5 |
| 20260504000427 | 11 | 187 | 0.0 | 1.6 | 0.00 | 0.00 | 0.00 | 40 | 1004.5 |
| 20260503235924 | 10 | 175 | 0.0 | 0.0 | 0.00 | 0.00 | 0.00 | 40 | 1004.5 |
| 20260503235422 | 11 | 175 | 0.0 | 0.0 | 0.00 | 0.00 | 0.00 | 39 | 1004.2 |
| 20260503234919 | 11 | 176 | 0.0 | 0.0 | 0.00 | 0.00 | 0.00 | 37 | 1004.5 |
| 20260503234417 | 11 | 170 | 0.0 | 0.0 | 0.00 | 0.00 | 0.00 | 40 | 1003.9 |
| 20260503233915 | 11 | 183 | 0.0 | 1.6 | 0.00 | 0.00 | 0.00 | 38 | 1004.2 |
| 20260503233411 | 11 | 202 | 0.0 | 1.6 | 0.00 | 0.00 | 0.00 | 37 | 1003.9 |
| 20260503232907 | 11 | 151 | 0.0 | 0.0 | 0.00 | 0.00 | 0.00 | 40 | 1004.2 |
| 20260503232405 | 11 | 105 | 1.6 | 3.2 | 0.00 | 0.00 | 0.00 | 38 | 1003.9 |
| 20260503231902 | 11 | 167 | 0.0 | 1.6 | 0.00 | 0.00 | 0.00 | 38 | 1003.9 |
| 20260503231359 | 11 | 92 | 0.0 | 1.6 | 0.00 | 0.00 | 0.00 | 39 | 1003.9 |
| 20260503230855 | 11 | 197 | 0.0 | 4.8 | 0.00 | 0.00 | 0.00 | 40 | 1004.2 |
| 20260503230352 | 11 | 123 | 3.2 | 3.2 | 0.00 | 0.00 | 0.00 | 37 | 1003.9 |
| 20260503225850 | 11 | 218 | 1.6 | 3.2 | 0.00 | 0.00 | 0.00 | 38 | 1003.9 |
| 20260503225346 | 12 | 214 | 3.2 | 3.2 | 0.00 | 0.00 | 0.00 | 38 | 1003.9 |
| 20260503224842 | 12 | 251 | 3.2 | 4.8 | 0.00 | 0.00 | 0.00 | 35 | 1003.9 |
| 20260503224339 | 12 | 70 | 1.6 | 6.4 | 0.00 | 0.00 | 0.00 | 34 | 1003.5 |
| 20260503223837 | 12 | 98 | 1.6 | 11.3 | 0.00 | 0.00 | 0.00 | 33 | 1003.5 |
| 20260503223335 | 12 | 284 | 6.4 | 12.9 | 0.00 | 0.00 | 0.00 | 34 | 1003.5 |
| 20260503222830 | 12 | 120 | 1.6 | 3.2 | 0.00 | 0.00 | 0.00 | 39 | 1003.9 |
| 20260503222329 | 12 | 276 | 1.6 | 4.8 | 0.00 | 0.00 | 0.00 | 35 | 1003.5 |
| 20260503221826 | 13 | 209 | 0.0 | 1.6 | 0.00 | 0.00 | 0.00 | 36 | 1003.9 |
| 20260503221325 | 13 | 236 | 3.2 | 6.4 | 0.00 | 0.00 | 0.00 | 34 | 1003.5 |
| 20260503220820 | 13 | 314 | 1.6 | 6.4 | 0.00 | 0.00 | 0.00 | 35 | 1003.9 |
| 20260503220318 | 13 | 212 | 1.6 | 4.8 | 0.00 | 0.00 | 0.00 | 36 | 1003.5 |
| 20260503215814 | 13 | 217 | 3.2 | 11.3 | 0.00 | 0.00 | 0.00 | 35 | 1003.5 |
| 20260503215312 | 13 | 244 | 3.2 | 14.5 | 0.00 | 0.00 | 0.00 | 37 | 1003.5 |
| 20260503214810 | 13 | 26 | 6.4 | 14.5 | 0.00 | 0.00 | 0.00 | 33 | 1003.2 |
| 20260503214306 | 12 | 25 | 0.0 | 9.7 | 0.00 | 0.00 | 0.00 | 34 | 1003.5 |
| 20260503213804 | 13 | 4 | 3.2 | 6.4 | 0.00 | 0.00 | 0.00 | 35 | 1003.9 |
| 20260503213301 | 13 | 322 | 3.2 | 11.3 | 0.00 | 0.00 | 0.00 | 35 | 1003.5 |
| 20260503212758 | 13 | 187 | 4.8 | 6.4 | 0.00 | 0.00 | 0.00 | 35 | 1003.5 |
| 20260503212256 | 12 | 351 | 1.6 | 9.7 | 0.00 | 0.00 | 0.00 | 34 | 1003.5 |
| 20260503211753 | 12 | 342 | 4.8 | 12.9 | 0.00 | 0.00 | 0.00 | 35 | 1003.5 |
| 20260503211249 | 12 | 191 | 3.2 | 17.7 | 0.00 | 0.00 | 0.00 | 35 | 1003.2 |
| 20260503210744 | 12 | 319 | 4.8 | 11.3 | 0.00 | 0.00 | 0.00 | 38 | 1003.5 |
| 20260503210242 | 12 | 264 | 6.4 | 11.3 | 0.00 | 0.00 | 0.00 | 37 | 1003.5 |
| 20260503205742 | 12 | 152 | 3.2 | 12.9 | 0.00 | 0.00 | 0.00 | 36 | 1003.5 |
| 20260503205239 | 12 | 143 | 3.2 | 6.4 | 0.00 | 0.00 | 0.00 | 37 | 1003.2 |
| 20260503204735 | 13 | 9 | 6.4 | 14.5 | 0.00 | 0.00 | 0.00 | 37 | 1003.2 |
| 20260503204233 | 13 | 268 | 4.8 | 6.4 | 0.00 | 0.00 | 0.00 | 37 | 1003.5 |
| 20260503203731 | 12 | 221 | 4.8 | 22.5 | 0.00 | 0.00 | 0.00 | 37 | 1003.5 |
| 20260503203228 | 12 | 262 | 9.7 | 20.9 | 0.00 | 0.00 | 0.00 | 38 | 1003.5 |
| 20260503202725 | 12 | 13 | 8.0 | 17.7 | 0.00 | 0.00 | 0.00 | 37 | 1003.5 |
| 20260503202223 | 13 | 306 | 3.2 | 11.3 | 0.00 | 0.00 | 0.00 | 37 | 1003.5 |
| 20260503201720 | 13 | 77 | 3.2 | 6.4 | 0.00 | 0.00 | 0.00 | 42 | 1003.5 |
| 20260503201218 | 12 | 272 | 6.4 | 20.9 | 0.00 | 0.00 | 0.00 | 37 | 1003.5 |
| 20260503200714 | 13 | 173 | 4.8 | 9.7 | 0.00 | 0.00 | 0.00 | 38 | 1003.5 |
| 20260503200211 | 12 | 246 | 4.8 | 12.9 | 0.00 | 0.00 | 0.00 | 40 | 1003.5 |
| 20260503195707 | 12 | 342 | 4.8 | 6.4 | 0.00 | 0.00 | 0.00 | 41 | 1003.9 |
| 20260503195204 | 12 | 85 | 4.8 | 6.4 | 0.00 | 0.00 | 0.00 | 38 | 1003.5 |
| 20260503194701 | 12 | 31 | 6.4 | 12.9 | 0.00 | 0.00 | 0.00 | 37 | 1003.5 |
| 20260503194156 | 12 | 172 | 11.3 | 20.9 | 0.00 | 0.00 | 0.00 | 38 | 1003.5 |
| 20260503193654 | 11 | 353 | 17.7 | 24.1 | 0.00 | 0.00 | 0.00 | 38 | 1003.9 |
| 20260503193149 | 12 | 349 | 6.4 | 25.7 | 0.00 | 0.00 | 0.00 | 40 | 1003.9 |
| 20260503192645 | 12 | 324 | 6.4 | 20.9 | 0.00 | 0.00 | 0.00 | 43 | 1003.9 |
| 20260503192141 | 12 | 356 | 6.4 | 16.1 | 0.00 | 0.00 | 0.00 | 41 | 1003.9 |
| 20260503191638 | 12 | 229 | 4.8 | 14.5 | 0.00 | 0.00 | 0.00 | 40 | 1003.9 |
| 20260503191135 | 11 | 262 | 3.2 | 11.3 | 0.00 | 0.00 | 0.00 | 42 | 1003.9 |
| 20260503190632 | 12 | 228 | 4.8 | 20.9 | 0.00 | 0.00 | 0.00 | 41 | 1004.2 |
| 20260503190129 | 12 | 36 | 8.0 | 16.1 | 0.00 | 0.00 | 0.00 | 43 | 1003.9 |
| 20260503185625 | 12 | 83 | 4.8 | 17.7 | 0.00 | 0.00 | 0.00 | 39 | 1003.9 |
| 20260503185120 | 12 | 288 | 4.8 | 12.9 | 0.00 | 0.00 | 0.00 | 39 | 1003.9 |
| 20260503184615 | 11 | 345 | 1.6 | 9.7 | 0.00 | 0.00 | 0.00 | 42 | 1003.9 |
| 20260503184112 | 11 | 53 | 3.2 | 9.7 | 0.00 | 0.00 | 0.00 | 42 | 1003.9 |
| 20260503183609 | 11 | 355 | 14.5 | 24.1 | 0.00 | 0.00 | 0.00 | 39 | 1003.9 |
| 20260503183106 | 11 | 249 | 3.2 | 4.8 | 0.00 | 0.00 | 0.00 | 38 | 1003.9 |
| 20260503182605 | 11 | 79 | 3.2 | 12.9 | 0.00 | 0.00 | 0.00 | 42 | 1003.9 |
| 20260503182102 | 11 | 90 | 3.2 | 11.3 | 0.00 | 0.00 | 0.00 | 40 | 1003.5 |
| 20260503181559 | 12 | 303 | 3.2 | 11.3 | 0.00 | 0.00 | 0.00 | 40 | 1003.9 |
| 20260503181055 | 11 | 321 | 8.0 | 14.5 | 0.00 | 0.00 | 0.00 | 41 | 1003.9 |
| 20260503180553 | 11 | 242 | 4.8 | 9.7 | 0.00 | 0.00 | 0.00 | 39 | 1003.9 |
| 20260503180050 | 11 | 284 | 3.2 | 9.7 | 0.00 | 0.00 | 0.00 | 40 | 1003.9 |
| 20260503175547 | 11 | 264 | 1.6 | 11.3 | 0.00 | 0.00 | 0.00 | 40 | 1003.9 |
| 20260503175045 | 11 | 296 | 4.8 | 16.1 | 0.00 | 0.00 | 0.00 | 40 | 1003.9 |
| 20260503174542 | 11 | 232 | 9.7 | 25.7 | 0.00 | 0.00 | 0.00 | 38 | 1003.9 |
| 20260503174038 | 11 | 332 | 6.4 | 12.9 | 0.00 | 0.00 | 0.00 | 41 | 1003.9 |
| 20260503173533 | 11 | 224 | 9.7 | 17.7 | 0.00 | 0.00 | 0.00 | 38 | 1003.5 |
| 20260503173029 | 11 | 64 | 9.7 | 12.9 | 0.00 | 0.00 | 0.00 | 41 | 1003.5 |
| 20260503172527 | 12 | 353 | 4.8 | 14.5 | 0.00 | 0.00 | 0.00 | 37 | 1003.9 |
| 20260503172024 | 11 | 318 | 11.3 | 17.7 | 0.00 | 0.00 | 0.00 | 37 | 1003.9 |
| 20260503171521 | 11 | 313 | 9.7 | 14.5 | 0.00 | 0.00 | 0.00 | 38 | 1003.9 |
| 20260503171018 | 11 | 98 | 9.7 | 20.9 | 0.00 | 0.00 | 0.00 | 40 | 1003.9 |
| 20260503170514 | 11 | 319 | 8.0 | 16.1 | 0.00 | 0.00 | 0.00 | 40 | 1003.9 |